Probability
0 0 0 0 0 0 0 0 0 0 0 0 0 0 0 0 0 0 0 0 0 0 0 0 0 0 6 13 16 16 26 32 39 42 32 29 26 23 13 10 0 0 0 0
0 0 0 0 0 0 0 0 0 0 0 0 0 0 0 0 0 0 0 0 0 0 0 0 0 0 10 10 13 10 13 13 19 29 19 23 23 23 19 10 0 0 0 0
0 0 0 0 0 0 0 0 0 0 0 0 0 0 0 0 0 0 0 0 0 0 0 0 0 0 0 6 13 10 10 10 10 10 16 0 13 6 6 6 6 0 0 0
0 0 0 0 0 0 0 0 0 0 0 0 0 0 0 0 0 0 0 0 0 0 0 0 0 0 0 0 3 3 6 6 13 10 6 6 10 13 13 6 3 0 0 0
0 0 0 0 0 0 0 0 0 0 0 0 0 0 0 0 0 0 0 0 0 0 0 0 0 0 0 0 0 0 0 0 3 3 6 10 10 10 3 3 0 0 0 0
0 0 0 0 0 0 0 0 0 0 0 0 0 0 0 0 0 0 0 0 0 0 0 0 0 0 0 0 0 0 0 0 0 0 0 6 6 3 3 0 0 0 0 0
0 0 0 0 0 0 0 0 0 0 0 0 0 0 0 0 0 0 0 0 0 0 0 0 0 0 0 0 0 0 0 0 0 0 0 0 0 0 0 0 0 0 0 0
0 0 0 0 0 0 0 0 0 0 0 0 0 0 0 0 0 0 0 0 0 0 0 0 0 0 0 0 0 0 0 0 0 0 0 0 0 0 0 0 0 0 0 0
0 0 0 0 0 0 0 0 0 0 0 0 0 0 0 0 0 0 0 0 0 0 0 0 0 0 0 0 0 0 0 0 0 0 0 0 0 0 0 0 0 0 0 0
0 0 0 0 0 0 0 0 0 0 0 0 0 0 0 0 0 0 0 0 0 0 0 0 0 0 0 0 0 0 0 0 0 0 0 0 0 0 0 0 0 0 0 0
0 0 0 0 0 0 0 0 0 0 0 0 0 0 0 0 0 0 0 0 0 0 0 0 0 0 0 0 0 0 0 0 0 0 0 0 0 0 0 0 0 0 0 0
0 0 0 0 0 0 0 0 0 0 0 0 0 0 0 0 0 0 0 0 0 0 0 0 0 0 0 0 0 0 0 0 0 0 0 0 0 0 0 0 0 0 0 0
0 0 0 0 0 0 0 0 0 0 0 0 0 0 0 0 0 0 0 0 0 0 0 0 0 0 0 0 0 0 0 0 0 0 0 0 0 0 0 0 0 0 0 0
0 0 0 0 0 0 0 0 0 0 0 0 0 0 0 0 0 0 0 0 0 0 0 0 0 0 0 0 0 0 0 0 0 0 0 0 0 0 0 0 0 0 0 0
0 0 0 0 0 0 0 0 0 0 0 0 0 0 0 0 0 0 0 0 0 0 0 0 0 0 0 0 0 0 0 0 0 0 0 0 0 0 0 0 0 0 0 0
0 0 0 0 0 0 0 0 0 0 0 0 0 0 0 0 0 0 0 0 0 0 0 0 0 0 0 0 0 0 0 0 0 0 0 0 0 0 0 0 0 0 0 0
0 0 0 0 0 0 0 0 0 0 0 0 0 0 0 0 0 0 0 0 0 0 0 0 0 0 0 0 0 0 0 0 0 0 0 0 0 0 0 0 0 0 0 0
0 0 0 0 0 0 0 0 0 0 0 0 0 0 0 0 0 0 0 0 0 0 0 0 0 0 0 0 0 0 0 0 0 0 0 0 0 0 0 0 0 0 0 0
0 0 0 0 0 0 0 0 0 0 0 0 0 0 0 0 0 0 0 0 0 0 0 0 0 0 0 0 0 0 0 0 0 0 0 0 0 0 0 0 0 0 0 0
0 0 0 0 0 0 0 0 0 0 0 0 0 0 0 0 0 0 0 0 0 0 0 0 0 0 0 0 0 0 0 0 0 0 0 0 0 0 0 0 0 0 0 0
0 0 0 0 0 0 0 0 0 0 0 0 0 0 0 0 0 0 0 0 0 0 0 0 0 0 0 0 0 0 0 0 0 0 0 0 0 0 0 0 0 0 0 0
0 0 0 0 0 0 0 0 0 0 0 0 0 0 0 0 0 0 0 0 0 0 0 0 0 0 0 0 0 0 0 0 0 0 0 0 0 0 0 0 0 0 0 0
0 0 0 0 0 0 0 0 0 0 0 0 0 0 0 0 0 0 0 0 0 0 0 0 0 0 0 0 0 0 0 0 0 0 0 0 0 0 0 0 0 0 0 0
0 0 0 0 0 0 0 0 0 0 0 0 0 0 0 0 0 0 0 0 0 0 0 0 0 0 0 0 0 0 0 0 0 0 0 0 0 0 0 0 0 0 0 0
0 0 0 0 0 0 0 0 0 0 0 0 0 0 0 0 0 0 0 0 0 0 0 0 0 0 0 0 0 0 0 0 0 0 0 0 0 0 0 0 0 0 0 0
0 0 0 0 0 0 0 0 0 0 0 0 0 0 0 0 0 0 0 0 0 0 0 0 0 0 0 0 0 0 0 0 0 0 0 0 0 0 0 0 0 0 0 0
Height
5619 5630 5639 5650 5660 5670 5679 5688 5696 5705 5712 5719 5726 5733 5738 5743 5750 5757 5763 5770 5776 5783 5788 5793 5799 5804 5808 5812 5816 5819 5822 5824 5827 5829 5832 5834 5836 5838 5839 5841 5842 5842 5843 5843
5622 5630 5639 5648 5657 5667 5675 5684 5692 5700 5707 5714 5720 5726 5731 5738 5745 5751 5757 5763 5770 5775 5780 5786 5791 5796 5800 5804 5808 5812 5814 5817 5819 5821 5824 5826 5828 5830 5832 5833 5834 5835 5835 5836
5623 5631 5638 5647 5656 5665 5673 5682 5690 5697 5703 5709 5716 5722 5727 5734 5740 5745 5751 5757 5762 5768 5773 5778 5782 5787 5791 5795 5799 5803 5806 5809 5811 5814 5816 5818 5820 5822 5824 5825 5826 5827 5827 5827
5625 5632 5639 5647 5655 5664 5672 5680 5687 5694 5700 5706 5713 5718 5724 5729 5734 5740 5746 5750 5755 5760 5765 5769 5774 5778 5782 5786 5790 5794 5797 5800 5803 5805 5807 5810 5811 5813 5815 5816 5817 5818 5818 5819
5627 5633 5640 5648 5656 5663 5671 5678 5686 5692 5698 5703 5709 5714 5721 5724 5730 5735 5739 5742 5746 5750 5755 5759 5764 5769 5773 5777 5781 5784 5788 5791 5793 5796 5798 5800 5802 5804 5806 5807 5808 5809 5809 5810
5630 5636 5642 5649 5656 5663 5670 5677 5683 5688 5694 5700 5705 5710 5716 5719 5724 5727 5730 5733 5737 5741 5745 5750 5754 5759 5764 5768 5771 5775 5778 5781 5783 5786 5788 5791 5793 5794 5796 5797 5798 5799 5800 5800
5633 5638 5644 5650 5655 5662 5668 5676 5681 5686 5690 5696 5701 5704 5711 5714 5717 5719 5722 5725 5728 5732 5737 5741 5746 5750 5755 5758 5762 5765 5768 5771 5774 5776 5779 5781 5783 5784 5786 5787 5788 5789 5789 5790
5637 5641 5646 5651 5657 5662 5668 5674 5681 5685 5688 5693 5697 5700 5706 5708 5710 5712 5715 5718 5721 5725 5729 5733 5737 5741 5745 5748 5752 5755 5758 5761 5764 5766 5769 5771 5772 5774 5775 5776 5777 5778 5779 5779
5640 5644 5648 5652 5657 5662 5667 5672 5677 5682 5685 5690 5693 5696 5700 5702 5704 5706 5709 5711 5714 5718 5721 5725 5728 5732 5736 5739 5742 5745 5748 5751 5754 5757 5759 5761 5762 5764 5765 5766 5766 5767 5768 5768
5642 5646 5649 5653 5657 5662 5666 5671 5675 5679 5682 5686 5689 5692 5695 5697 5699 5701 5703 5705 5708 5711 5714 5717 5720 5723 5727 5730 5733 5736 5739 5742 5744 5746 5748 5750 5752 5753 5754 5755 5756 5756 5757 5757
5644 5647 5651 5653 5657 5661 5665 5669 5672 5675 5679 5682 5685 5690 5690 5692 5694 5696 5697 5699 5701 5704 5706 5709 5712 5715 5717 5720 5723 5726 5728 5731 5733 5736 5737 5739 5740 5742 5743 5744 5744 5745 5745 5745
5645 5648 5650 5653 5656 5659 5663 5666 5669 5673 5675 5678 5681 5687 5685 5687 5688 5690 5691 5693 5695 5697 5699 5701 5704 5706 5709 5711 5713 5716 5718 5720 5722 5724 5726 5727 5729 5730 5731 5732 5732 5733 5734 5734
5644 5647 5649 5652 5656 5658 5660 5663 5666 5668 5670 5673 5676 5682 5681 5682 5683 5684 5685 5687 5689 5690 5692 5694 5696 5697 5700 5702 5704 5706 5708 5709 5711 5713 5714 5716 5717 5718 5719 5720 5721 5721 5722 5722
5643 5645 5648 5651 5652 5655 5657 5660 5662 5663 5666 5668 5671 5675 5676 5675 5676 5677 5678 5680 5681 5683 5685 5686 5688 5689 5691 5692 5694 5695 5697 5699 5700 5702 5703 5704 5705 5706 5707 5708 5708 5709 5709 5710
5641 5643 5644 5647 5649 5651 5653 5655 5657 5659 5661 5663 5666 5667 5669 5669 5669 5671 5672 5673 5675 5676 5677 5678 5679 5680 5682 5683 5684 5686 5687 5689 5690 5691 5692 5693 5694 5695 5695 5696 5697 5697 5698 5698
5637 5639 5641 5643 5644 5646 5648 5650 5652 5654 5655 5657 5659 5661 5661 5662 5663 5664 5665 5666 5667 5668 5669 5669 5670 5672 5673 5674 5675 5676 5677 5678 5679 5680 5681 5682 5683 5684 5684 5685 5685 5686 5686 5686
5633 5635 5637 5639 5640 5642 5644 5646 5647 5648 5650 5651 5652 5655 5654 5655 5656 5657 5658 5659 5660 5660 5661 5661 5662 5663 5664 5665 5666 5667 5668 5669 5669 5670 5671 5672 5672 5673 5673 5674 5674 5674 5675 5675
5629 5630 5632 5633 5636 5637 5641 5640 5641 5642 5643 5644 5645 5646 5647 5648 5649 5649 5650 5651 5651 5652 5652 5653 5653 5654 5655 5656 5657 5657 5658 5659 5659 5660 5661 5661 5662 5662 5663 5663 5664 5664 5664 5665
5624 5626 5627 5629 5630 5631 5634 5634 5635 5636 5637 5638 5639 5640 5640 5641 5642 5642 5642 5643 5643 5643 5644 5644 5645 5646 5647 5648 5648 5648 5649 5649 5650 5650 5651 5652 5652 5653 5653 5653 5654 5654 5655 5655
5619 5620 5622 5623 5624 5626 5628 5628 5628 5630 5630 5631 5632 5633 5633 5634 5635 5635 5635 5635 5635 5635 5636 5636 5637 5638 5638 5639 5639 5640 5640 5641 5641 5641 5642 5642 5643 5643 5644 5644 5645 5645 5645 5646
5614 5615 5616 5617 5618 5620 5621 5621 5623 5625 5625 5625 5625 5626 5626 5626 5627 5628 5627 5627 5627 5628 5628 5628 5629 5630 5630 5631 5631 5632 5632 5632 5633 5633 5633 5634 5634 5635 5635 5636 5636 5636 5637 5637
5608 5609 5610 5611 5612 5615 5614 5615 5617 5617 5617 5618 5618 5619 5619 5620 5620 5620 5620 5620 5620 5620 5621 5621 5622 5622 5623 5623 5623 5624 5624 5625 5625 5625 5625 5626 5626 5627 5627 5628 5628 5628 5629 5629
5602 5604 5604 5606 5608 5607 5608 5608 5609 5610 5611 5611 5612 5612 5613 5613 5613 5613 5614 5614 5614 5614 5614 5614 5615 5615 5615 5616 5616 5616 5617 5617 5617 5618 5618 5619 5619 5619 5620 5620 5621 5621 5621 5621
5596 5597 5598 5599 5599 5600 5601 5601 5602 5603 5604 5604 5605 5605 5606 5606 5606 5606 5607 5607 5607 5607 5607 5607 5608 5608 5608 5608 5609 5609 5610 5610 5610 5611 5611 5611 5612 5612 5613 5613 5613 5613 5613 5614
5590 5591 5591 5592 5593 5593 5594 5594 5595 5596 5596 5597 5598 5598 5598 5599 5599 5599 5600 5600 5600 5600 5600 5600 5601 5601 5601 5601 5601 5602 5602 5603 5603 5604 5604 5604 5605 5605 5605 5605 5605 5606 5606 5606
5584 5584 5585 5586 5586 5587 5587 5587 5587 5588 5589 5589 5590 5590 5591 5591 5592 5592 5592 5592 5592 5593 5593 5593 5593 5594 5594 5594 5594 5595 5595 5595 5596 5596 5596 5597 5597 5597 5597 5597 5598 5597 5598 5597
Wind_Speed
39 39 41 43 45 47 48 48 48 47 46 46 47 47 48 51 53 54 54 53 52 51 51 50 49 48 47 46 45 44 43 44 44 44 43 42 41 40 39 38 37 37 36 35
37 36 37 40 43 44 45 45 45 44 43 44 45 46 47 49 51 53 54 54 53 52 51 51 51 51 50 49 48 47 46 46 45 45 45 44 44 43 42 41 40 40 39 39
34 34 35 38 40 42 42 42 42 41 41 42 43 44 45 46 47 50 52 54 54 53 53 52 51 51 52 51 50 50 50 49 47 47 46 46 46 45 45 44 43 42 42 41
30 31 33 35 38 39 40 40 39 38 38 39 40 41 41 43 45 45 47 49 52 54 53 53 53 52 52 52 52 51 51 51 50 49 49 48 48 47 47 46 46 45 44 44
27 29 31 32 34 36 37 37 37 36 36 36 37 38 38 39 41 42 44 45 48 51 53 54 54 53 52 52 53 53 52 52 51 51 51 50 50 49 49 49 48 47 47 46
24 28 30 31 32 34 34 35 35 34 34 34 34 35 34 34 35 38 41 43 45 48 49 51 53 54 53 51 51 51 51 51 51 51 51 51 50 50 50 49 49 49 48 48
24 27 29 30 30 32 33 33 33 33 33 34 32 33 31 31 33 34 37 40 42 45 47 48 49 50 51 51 51 51 51 50 50 50 50 50 49 49 49 49 49 49 49 49
23 25 25 27 28 29 31 32 32 32 32 31 29 30 28 28 30 31 34 37 39 41 43 45 47 48 48 49 50 50 50 49 49 49 48 48 48 48 48 49 49 49 49 49
20 21 22 24 26 27 29 30 29 30 29 27 27 27 26 25 26 28 31 34 36 38 39 41 43 45 46 47 48 48 48 48 47 47 47 47 48 48 49 49 49 49 49 49
17 18 19 22 24 26 27 27 27 28 27 27 27 25 24 24 25 26 28 30 32 34 36 38 40 42 45 46 47 48 48 48 48 47 48 48 49 49 49 50 50 50 50 50
16 17 18 20 22 23 24 26 26 27 27 27 26 24 23 24 24 26 27 28 30 31 34 36 37 39 41 44 46 47 48 49 49 49 49 50 50 50 50 51 51 51 51 50
15 17 18 19 21 22 24 24 25 26 26 26 25 24 23 22 23 24 26 27 29 30 32 33 36 38 39 41 43 45 47 49 50 50 51 51 51 52 52 52 52 52 52 51
15 17 18 20 21 22 23 23 23 24 25 25 25 23 21 22 23 25 26 27 29 30 31 32 33 36 37 39 41 42 44 46 47 48 49 50 51 51 52 52 52 52 51 50
15 17 19 20 20 21 22 22 23 25 25 25 23 21 20 23 25 27 29 29 30 30 31 32 33 34 35 37 38 40 41 42 44 45 46 47 48 49 49 49 49 49 48 48
17 18 19 20 21 22 22 23 23 24 25 25 23 22 21 25 28 29 30 30 31 32 32 33 34 34 35 36 37 38 39 41 42 43 43 44 45 45 45 45 45 45 45 44
19 19 20 21 21 22 23 23 24 25 25 26 26 23 24 27 28 29 29 30 31 31 32 33 34 34 35 36 37 38 39 40 41 41 41 42 42 42 42 42 43 43 43 42
19 20 21 22 22 23 23 23 24 25 26 27 27 25 26 27 28 28 29 29 29 30 31 32 33 33 34 34 35 36 37 38 39 40 40 40 40 40 40 40 40 40 40 40
19 20 21 21 22 23 22 23 24 25 26 27 27 27 26 26 27 28 29 29 29 29 31 31 32 32 33 33 34 35 36 37 37 38 38 38 38 38 38 37 37 37 37 37
19 20 20 21 22 23 23 22 23 24 25 26 26 26 26 26 26 28 28 28 29 29 30 31 31 32 32 32 33 34 34 35 36 36 36 37 37 37 36 35 35 35 35 34
20 20 20 21 22 22 23 23 24 24 25 25 25 25 25 25 25 26 27 26 27 27 28 29 29 30 30 31 31 32 32 33 33 33 33 34 34 34 34 34 33 32 32 31
21 21 21 21 22 22 22 22 23 23 24 23 23 23 23 23 23 24 24 24 25 25 26 26 27 28 29 29 30 30 29 29 29 29 29 30 30 30 31 31 31 30 30 29
21 21 22 22 23 22 22 22 22 23 23 22 22 22 22 22 22 22 22 22 23 24 24 24 25 25 26 27 28 28 28 27 27 27 28 28 28 28 28 28 28 28 28 28
20 21 21 22 23 23 22 22 22 23 23 22 22 22 22 22 22 22 22 21 21 22 22 23 24 25 25 26 26 26 26 26 26 26 26 26 26 27 27 28 28 28 28 28
22 22 22 22 23 23 22 22 22 22 22 23 23 23 23 23 23 23 23 22 22 22 22 22 23 24 24 24 25 25 25 25 25 25 26 26 26 27 27 27 27 27 27 28
22 22 22 23 23 24 24 24 24 23 23 23 23 23 23 23 23 23 23 23 23 23 23 23 23 23 23 24 25 25 25 25 26 26 26 26 26 26 27 27 27 28 28 29
21 22 23 23 24 24 24 24 25 25 25 25 24 25 24 24 24 23 24 24 24 24 24 24 24 24 24 25 25 26 26 26 26 26 27 27 28 28 28 27 28 28 28 29
Wind_Direction
176 184 191 193 196 199 202 204 207 209 210 214 215 216 216 219 221 222 224 226 229 230 231 231 231 231 233 235 237 239 241 242 242 242 243 246 248 252 255 258 262 265 268 271
174 179 186 190 194 197 201 204 206 208 210 213 215 217 218 220 222 224 225 227 228 230 232 232 233 233 234 236 237 239 241 243 244 244 244 246 248 252 255 259 262 265 268 271
172 177 182 187 191 196 200 204 207 209 212 215 217 219 220 220 223 225 227 229 230 231 233 234 235 235 236 237 239 241 242 243 245 246 246 247 250 252 256 259 262 265 268 271
172 177 181 184 189 194 199 202 206 209 213 216 218 222 222 223 225 227 228 230 232 232 233 235 236 237 238 239 241 242 243 244 246 247 248 250 251 254 256 259 262 264 267 269
171 175 180 183 187 192 198 201 205 208 213 217 219 223 224 227 228 229 231 232 233 233 233 235 236 238 239 240 241 243 245 246 247 248 249 251 252 254 257 259 261 263 265 267
172 176 179 182 187 192 196 200 203 208 213 218 220 224 225 228 231 232 233 234 234 234 234 235 236 237 238 239 241 242 244 245 247 249 250 252 253 255 257 258 260 262 264 265
170 176 179 183 187 191 195 199 203 208 213 218 220 226 226 227 230 233 234 234 235 235 235 235 236 237 238 239 240 242 243 245 247 249 251 253 254 255 257 258 259 261 263 264
166 172 179 183 188 192 196 199 204 210 215 219 221 226 226 227 231 234 235 235 237 238 238 238 238 237 238 239 240 241 244 246 247 249 251 253 254 255 257 258 260 261 263 265
169 176 180 186 189 192 197 201 206 212 217 221 223 226 228 230 233 235 236 237 238 239 240 240 241 241 241 241 241 243 244 245 247 249 251 252 254 256 258 260 261 262 264 266
172 180 185 188 193 197 200 204 210 215 220 224 226 230 234 235 236 237 238 239 240 240 241 241 241 242 243 244 245 245 246 247 248 250 252 253 255 257 259 260 262 263 265 267
185 186 189 194 199 202 206 210 215 221 224 227 232 236 238 238 238 239 240 241 242 242 243 243 243 244 245 246 247 248 249 250 251 253 254 256 257 259 260 261 263 264 266 267
198 198 201 204 206 210 213 215 220 225 229 232 236 237 239 242 243 244 244 245 245 246 246 246 246 246 247 248 248 249 250 251 252 254 255 257 259 260 261 262 264 265 266 267
208 210 211 213 215 217 220 222 227 231 234 236 238 240 242 247 248 248 247 248 248 249 249 250 250 250 250 250 251 251 252 253 254 255 256 258 259 261 262 263 264 265 266 268
217 220 221 223 225 226 227 228 232 235 237 240 243 245 246 246 246 247 249 250 251 252 253 253 254 254 253 253 253 253 254 254 255 256 257 259 260 262 264 265 266 267 268 269
223 226 227 228 230 230 230 232 236 239 242 246 246 247 247 248 250 251 253 255 256 257 257 257 256 256 256 256 257 257 257 257 257 258 259 260 261 262 263 264 265 266 267 267
230 231 233 234 235 235 236 238 241 244 247 250 251 251 251 252 254 256 257 259 260 260 260 260 259 258 258 259 259 259 259 259 259 260 261 262 262 262 263 263 264 264 265 265
235 236 237 238 238 238 239 241 244 246 248 251 253 254 255 255 256 258 259 261 262 261 260 260 260 259 259 260 260 260 260 261 260 260 261 262 262 262 263 264 264 265 265 265
238 239 240 240 241 243 244 244 247 249 250 251 253 256 257 257 258 259 260 261 261 260 259 260 260 259 259 260 260 260 260 260 260 261 261 261 261 262 263 263 264 265 265 265
242 243 244 244 245 247 248 249 249 250 251 253 255 257 258 259 259 260 261 260 260 260 260 259 259 259 259 260 261 261 261 261 261 261 262 262 262 262 263 264 265 265 264 264
244 246 248 248 249 249 249 250 252 253 254 254 256 257 258 259 259 260 260 260 259 259 259 258 258 258 259 260 261 261 261 261 261 262 262 262 262 262 262 263 263 264 263 263
248 248 249 251 251 250 249 249 251 252 254 255 256 256 257 258 259 259 260 260 259 259 257 257 257 257 258 259 259 260 261 261 261 262 263 262 262 262 261 261 261 262 261 262
249 250 250 251 253 252 251 251 251 253 254 255 255 256 256 257 257 258 258 259 259 258 256 255 256 257 258 259 259 259 260 260 260 262 262 261 261 261 261 261 261 261 261 261
250 251 252 253 254 255 254 254 253 253 254 255 256 256 256 257 257 258 258 258 258 258 257 256 256 258 259 259 259 258 258 259 260 260 260 261 261 261 262 262 262 262 261 261
251 253 255 256 256 256 255 254 254 254 255 255 256 257 257 258 259 258 257 258 258 257 256 258 259 258 257 258 257 257 258 259 259 260 261 261 262 263 264 264 262 262 262 263
254 255 256 256 257 257 257 256 256 256 257 257 258 259 259 259 259 259 258 258 258 258 257 257 258 257 257 258 258 257 258 259 259 260 261 261 262 264 264 264 264 264 264 264
257 255 255 256 257 258 259 260 259 258 259 259 259 260 261 261 260 259 259 259 259 259 258 258 259 258 259 260 259 259 259 259 259 260 262 262 262 263 263 263 265 266 265 266